This is the latest recevied weather packets stored in our database for station/object W0AKY-13. If no packets are shown the sender has not sent any weather packets the latest 10 day(s).
| Time | Temp. | Humidity | Pressure | Rain* | Wind** | Luminosity | Snow |
|---|---|---|---|---|---|---|---|
| 1777869370 | 12.78° C | 80% | 1009.3 hPa | 0 mm | - | 0 W/m² | - |
| 1777869067 | 12.78° C | 79% | 1009.3 hPa | 0 mm | - | 0 W/m² | - |
| 1777868764 | 12.22° C | 77% | 1009.5 hPa | 0 mm | - | 0 W/m² | - |
| 1777868461 | 12.78° C | 80% | 1009.6 hPa | 0 mm | - | 0 W/m² | - |
| 1777868156 | 12.78° C | 79% | 1009.6 hPa | 0 mm | - | 0 W/m² | - |
| 1777867853 | 12.78° C | 79% | 1009.6 hPa | 0 mm | - | 0 W/m² | - |
| 1777867550 | 12.78° C | 78% | 1009.4 hPa | 0 mm | - | 0 W/m² | - |
| 1777867247 | 12.78° C | 75% | 1009.5 hPa | 0 mm | - | 0 W/m² | - |
| 1777866944 | 12.78° C | 74% | 1009.4 hPa | 0 mm | - | 0 W/m² | - |
| 1777866640 | 12.78° C | 74% | 1009.7 hPa | 0 mm | - | 0 W/m² | - |
| 1777866338 | 13.33° C | 76% | 1009.5 hPa | 0 mm | - | 0 W/m² | - |
| 1777866035 | 13.33° C | 77% | 1009.7 hPa | 0 mm | - | 0 W/m² | - |
| 1777865733 | 13.33° C | 74% | 1009.6 hPa | 0 mm | - | 0 W/m² | - |
| 1777865430 | 13.33° C | 75% | 1009.7 hPa | 0 mm | - | 0 W/m² | - |
| 1777865127 | 13.33° C | 76% | 1009.7 hPa | 0 mm | - | 0 W/m² | - |
| 1777864824 | 13.33° C | 74% | 1009.8 hPa | 0 mm | - | 0 W/m² | - |
| 1777864521 | 13.89° C | 74% | 1009.9 hPa | 0 mm | - | 0 W/m² | - |
| 1777864216 | 13.89° C | 74% | 1009.8 hPa | 0 mm | - | 0 W/m² | - |
| 1777863914 | 13.89° C | 74% | 1010 hPa | 0 mm | - | 0 W/m² | - |
| 1777863610 | 13.89° C | 68% | 1010 hPa | 0 mm | - | 0 W/m² | - |
| 1777863307 | 14.44° C | 67% | 1010 hPa | 0 mm | - | 0 W/m² | - |
| 1777863004 | 14.44° C | 68% | 1010 hPa | 0 mm | - | 0 W/m² | - |
| 1777862701 | 14.44° C | 67% | 1010.3 hPa | 0 mm | - | 0 W/m² | - |
| 1777862398 | 14.44° C | 69% | 1010.2 hPa | 0 mm | - | 0 W/m² | - |
| 1777862095 | 15° C | 69% | 1010.2 hPa | 0 mm | - | 0 W/m² | - |
* Rain latest hour (hover to see other rain measurements)
** Current wind speed in m/s (hover to see current wind gust speed)